[[{"header":{"parameterUnit":"m.s-1","parameterCategory":1,"la1":30.2991,"la2":30.254,"lo1":-89.0895,"lo2":-89.0444,"dy":0.0017,"dx":0.0017,"nx":28,"ny":28,"refTime":"2024-08-01T09:00:00:Z","depth":0,"parameterNumber":2,"parameterNumberName":"U-component_of_WINDS"},"data":[0,0,0,0,0,0,0,0,0,0,0,0,0,0,0,0,0,0,0,0,0,0,0,0,0,0,0,0,0,0,0,0,0,0,0,0,0,0,0,0,0,0,0,0,0,0,0,0,0,0,0,0,0,0,0,0,0,0,0.8564,0.8564,0,0.8571,0.8571,0.8571,0.8548,0.8547,0.8547,0.8546,0.8554,0.8555,0.8556,0,0,0,0,0,0,0,0,0,0,0,0,0,0.853,0.8531,0.8564,0.8564,0.8564,0.8571,0.8571,0.8571,0.8548,0.8547,0.8546,0.8546,0.8554,0.8555,0.8556,0,0,0,0,0,0,0,0,0,0,0,0,0,0.8542,0.8531,0.8564,0.8553,0.8553,0.8571,0.8571,0.8571,0.8548,0.8547,0.8546,0.8545,0.8553,0.8555,0.8556,0.8585,0,0,0.856,0.856,0,0,0,0,0,0,0,0,0.8541,0.8543,0.8555,0.8554,0.8553,0.8558,0.8562,0.8576,0.8549,0.855,0.8546,0.8545,0.8556,0.8557,0.8561,0.8585,0.8586,0.856,0.8561,0.8561,0.8562,0,0,0,0,0,0,0,0.854,0.8543,0.8567,0.8555,0.8554,0.8548,0.8549,0.8564,0.8559,0.855,0.8548,0.8549,0.8555,0.856,0.8561,0.8586,0.856,0.8561,0.8562,0.8562,0.8632,0.8633,0,0,0,0,0,0,0.8541,0.8542,0.8566,0.8567,0.8544,0.855,0.855,0.8557,0.8559,0.8558,0.855,0.8548,0.8558,0.8559,0.8561,0.8593,0.8561,0.8563,0.8563,0.8631,0.8632,0.8633,0,0,0,0,0,0,0.854,0.8543,0.8566,0.8554,0.8556,0.8551,0.8559,0.8558,0.8562,0.8559,0.8558,0.8555,0.8557,0.8559,0.8579,0.8593,0.8563,0.8564,0.863,0.8631,0.8633,0.8659,0,0,0,0,0,0,0.8539,0.8543,0.8554,0.8554,0.8557,0.8584,0.856,0.8559,0.8564,0.8562,0.8563,0.8563,0.8556,0.8577,0.858,0.8595,0.8565,0.8628,0.863,0.8632,0.8657,0.8662,0.8665,0,0,0,0,0,0.8538,0.8562,0.8555,0.8558,0.8571,0.8585,0.8586,0.8578,0.8566,0.8576,0.8574,0.8563,0.8591,0.8579,0.8582,0.8598,0.8627,0.863,0.8632,0.8655,0.8661,0.8665,0,0,0,0,0,0,0.8565,0.8562,0.8554,0.8579,0.8582,0.8581,0.8595,0.8585,0.8592,0.859,0.8579,0.858,0.8601,0.8601,0.8588,0.8624,0.8607,0.861,0.8623,0.8629,0.8633,0.8632,0.8566,0,0,0,0,0,0.8574,0.8585,0.8582,0.8604,0.8606,0.86,0.8606,0.8599,0.8602,0.8604,0.8603,0.8606,0.8616,0.8622,0.8631,0.8657,0.8656,0.8669,0.8673,0.8677,0.8679,0.8691,0.8696,0.8641,0.8641,0.8641,0,0,0.8592,0.8592,0.86,0.8609,0.8611,0.8622,0.8601,0.8615,0.8623,0.8606,0.8623,0.8623,0.8626,0.8648,0.8658,0.8649,0.8694,0.868,0.8683,0.8683,0.8694,0.8699,0.8704,0.8643,0.8643,0.8642,0,0,0.8631,0.8632,0.865,0.8652,0.8654,0.865,0.8654,0.8654,0.8652,0.867,0.8656,0.8666,0.8683,0.8685,0.8689,0.8726,0.8715,0.8729,0.8751,0.8763,0.8767,0.8771,0.8782,0.8787,0.8732,0.8732,0.8732,0,0.8653,0.867,0.866,0.8674,0.8678,0.8662,0.8679,0.8681,0.8687,0.869,0.868,0.8699,0.8701,0.8722,0.8731,0.8735,0.8738,0.8729,0.8767,0.8771,0.8774,0.8785,0.879,0.8734,0.8733,0.8733,0.8733,0,0.8696,0.8708,0.8722,0.8726,0.8732,0.8748,0.874,0.8747,0.8739,0.8735,0.8752,0.8753,0.8761,0.8765,0.8759,0.8786,0.878,0.8769,0.8751,0.8781,0.8791,0.8795,0.8736,0.8735,0.8735,0.8734,0,0,0.8753,0.875,0.8755,0.8756,0.8757,0.8766,0.878,0.8787,0.8792,0.8796,0.8807,0.8821,0.881,0.8814,0.8807,0.8817,0.8845,0.8805,0.8804,0.8811,0.8872,0.888,0.8885,0.8838,0.8839,0.8839,0.8871,0,0.879,0.8813,0.8804,0.8828,0.8838,0.8822,0.8834,0.8836,0.8832,0.884,0.8836,0.8846,0.8831,0.8833,0.8843,0.8839,0.8857,0.8837,0.8847,0.8847,0.8846,0.889,0.8899,0.8929,0.8875,0.8876,0.8877,0,0.8836,0.884,0.8865,0.8862,0.8866,0.8877,0.8881,0.8889,0.889,0.8886,0.889,0.888,0.8893,0.8876,0.8893,0.888,0.8883,0.8882,0.8883,0.8883,0.8863,0.889,0.8939,0.8943,0.8883,0.8883,0.8882,0,0.8872,0.8885,0.89,0.8902,0.89,0.8907,0.8907,0.8906,0.891,0.8914,0.8916,0.8922,0.8925,0.893,0.8922,0.891,0.8939,0.8922,0.8936,0.8936,0.8942,0.8942,0.8991,0.8947,0.8947,0.8947,0.8946,0,0.8914,0.8929,0.8916,0.8926,0.8943,0.8932,0.8948,0.8946,0.8945,0.8954,0.8941,0.8949,0.8939,0.8946,0.894,0.8954,0.8956,0.8953,0.8951,0.8953,0.8953,0.8955,0.8952,0.8948,0.8947,0.8947,0.8947,0,0.8957,0.895,0.8965,0.8961,0.896,0.8972,0.8968,0.8977,0.8972,0.8983,0.8985,0.8978,0.8985,0.8977,0.8985,0.8981,0.8999,0.8995,0.8998,0.8997,0.9011,0.9009,0.9062,0.9067,0.9021,0.9021,0.9021,0,0.8983,0.8995,0.8991,0.8995,0.8995,0.9003,0.9006,0.8996,0.9,0.9,0.9008,0.9015,0.9019,0.9031,0.9027,0.9032,0.9026,0.9044,0.9027,0.9029,0.9025,0.9024,0.9024,0.9048,0.9048,0.9049,0.9049,0,0.903,0.9025,0.9031,0.9034,0.9038,0.9041,0.9043,0.9047,0.9036,0.9041,0.9048,0.9051,0.9058,0.9064,0.9067,0.9066,0.9055,0.9054,0.9058,0.906,0.9061,0.9059,0.9006,0.9053,0.9053,0.9052,0.9052,0.9052,0.9065,0.9073,0.9071,0.9077,0.9077,0.9078,0.9085,0.9081,0.9086,0.909,0.9084,0.9092,0.9091,0.9094,0.9094,0.91,0.9092,0.9098,0.9099,0.91,0.9101,0.9061,0.9101,0.9101,0.9101,0.9101,0.91,0,0.911,0.9107,0.9113,0.9114,0.9119,0.9108,0.9108,0.9113,0.912,0.912,0.9124,0.9131,0.9136,0.9131,0.9135,0.914,0.9136,0.9142,0.9141,0.914,0.9109,0.9105,0.9146,0.9145,0.9145,0.9145,0.9145,0.9145,0.9133,0.9146,0.9141,0.9153,0.9151,0.9158,0.9159,0.916,0.9159,0.9167,0.9171,0.9168,0.9165,0.9169,0.9173,0.9171,0.9173,0.918,0.9177,0.9147,0.9143,0.9139,0.9135,0.9181,0.9181,0.9207,0.9208,0.9208]},{"header":{"parameterUnit":"m.s-1","parameterCategory":1,"la1":30.2991,"la2":30.254,"lo1":-89.0895,"lo2":-89.0444,"dy":0.0017,"dx":0.0017,"nx":28,"ny":28,"refTime":"2024-08-01T09:00:00:Z","depth":0,"parameterNumber":3,"parameterNumberName":"V-component_of_WINDS"},"data":[0,0,0,0,0,0,0,0,0,0,0,0,0,0,0,0,0,0,0,0,0,0,0,0,0,0,0,0,0,0,0,0,0,0,0,0,0,0,0,0,0,0,0,0,0,0,0,0,0,0,0,0,0,0,0,0,0,0,2.5891,2.5891,0,2.5901,2.5902,2.5902,2.5841,2.584,2.5838,2.5836,2.5845,2.5847,2.5849,0,0,0,0,0,0,0,0,0,0,0,0,0,2.5817,2.5819,2.5891,2.5891,2.5892,2.5901,2.5902,2.5902,2.5842,2.5839,2.5837,2.5835,2.5845,2.5847,2.5849,0,0,0,0,0,0,0,0,0,0,0,0,0,2.5841,2.582,2.5891,2.5863,2.586,2.5901,2.5902,2.5902,2.5842,2.5839,2.5837,2.5834,2.5844,2.5847,2.5849,2.5918,0,0,2.5858,2.5859,0,0,0,0,0,0,0,0,2.5839,2.5843,2.5867,2.5865,2.5862,2.5867,2.5879,2.5907,2.5843,2.5849,2.5836,2.5833,2.5855,2.5856,2.5864,2.5918,2.5919,2.5858,2.586,2.5861,2.5862,0,0,0,0,0,0,0,2.5838,2.5843,2.5895,2.5867,2.5864,2.5849,2.5849,2.5884,2.5866,2.5848,2.5844,2.5846,2.5853,2.5861,2.5864,2.5919,2.5858,2.586,2.5862,2.5863,2.6028,2.6031,0,0,0,0,0,0,2.584,2.5842,2.5895,2.5895,2.5844,2.5852,2.5853,2.5868,2.5866,2.5863,2.5848,2.5843,2.5858,2.5861,2.5864,2.5943,2.5861,2.5864,2.5865,2.6026,2.6029,2.6032,0,0,0,0,0,0,2.5839,2.5846,2.5894,2.5867,2.5872,2.5856,2.5874,2.587,2.5878,2.5865,2.5862,2.586,2.5856,2.586,2.5905,2.5942,2.5865,2.5867,2.6023,2.6027,2.6031,2.6102,0,0,0,0,0,0,2.5837,2.5846,2.5872,2.5869,2.5874,2.5936,2.5877,2.5872,2.5883,2.5877,2.5876,2.5873,2.5854,2.5901,2.5907,2.5945,2.5869,2.6019,2.6024,2.6029,2.6096,2.6108,2.6118,0,0,0,0,0,2.5835,2.5892,2.5874,2.5881,2.5907,2.5938,2.5942,2.5919,2.5887,2.5913,2.5904,2.5873,2.5937,2.5906,2.5913,2.5951,2.6017,2.6023,2.6029,2.6091,2.6106,2.6118,0,0,0,0,0,0,2.59,2.5891,2.5871,2.5929,2.5935,2.5928,2.596,2.5935,2.595,2.5944,2.5914,2.5915,2.5964,2.5962,2.5928,2.6017,2.5971,2.5979,2.6016,2.603,2.6041,2.604,2.5872,0,0,0,0,0,2.5921,2.5948,2.5938,2.599,2.5995,2.5977,2.599,2.5972,2.5977,2.5979,2.5974,2.598,2.6001,2.6015,2.6034,2.6096,2.6094,2.6126,2.6137,2.6146,2.6153,2.6184,2.6197,2.6052,2.6052,2.6052,0,0,2.5965,2.5964,2.5982,2.6004,2.6006,2.6034,2.598,2.6011,2.6031,2.5984,2.6025,2.6022,2.6026,2.608,2.6103,2.6079,2.6192,2.6154,2.6161,2.6163,2.6191,2.6205,2.6217,2.6056,2.6056,2.6055,0,0,2.6059,2.6062,2.6104,2.6108,2.6113,2.61,2.6111,2.6108,2.6104,2.6145,2.611,2.6133,2.617,2.6174,2.6181,2.6276,2.6247,2.6283,2.634,2.6371,2.6382,2.6392,2.6425,2.6437,2.629,2.629,2.629,0,2.6113,2.6154,2.6129,2.6163,2.6173,2.6131,2.6174,2.6178,2.6189,2.6196,2.617,2.6215,2.6216,2.6268,2.6291,2.6299,2.6309,2.6282,2.6382,2.6392,2.6401,2.6432,2.6444,2.6294,2.6294,2.6293,2.6293,0,2.6219,2.6248,2.6282,2.6293,2.6307,2.6345,2.6325,2.6342,2.6322,2.6313,2.6355,2.6353,2.637,2.6382,2.6363,2.6432,2.6417,2.6388,2.6341,2.6419,2.6448,2.646,2.63,2.6299,2.6297,2.6296,0,0,2.6355,2.6352,2.6364,2.6368,2.637,2.6391,2.6427,2.6444,2.6458,2.6467,2.6495,2.6527,2.6499,2.6507,2.6489,2.6516,2.659,2.6482,2.6482,2.6502,2.6664,2.6686,2.67,2.6571,2.6573,2.6575,2.6663,0,2.6446,2.6507,2.6485,2.6547,2.6573,2.6533,2.6564,2.6568,2.656,2.6579,2.657,2.6593,2.6555,2.6559,2.6584,2.6575,2.6622,2.6569,2.6596,2.6598,2.6596,2.6715,2.6738,2.6821,2.6674,2.6676,2.6677,0,2.6561,2.6573,2.6638,2.6634,2.6644,2.6672,2.6685,2.6705,2.6708,2.67,2.6709,2.6684,2.6718,2.6672,2.6717,2.6682,2.6692,2.6689,2.6692,2.6693,2.6642,2.6718,2.6847,2.686,2.6695,2.6693,2.6692,0,2.6652,2.6685,2.6728,2.6732,2.6729,2.675,2.6749,2.675,2.6761,2.6773,2.6779,2.6795,2.6803,2.6815,2.6795,2.6764,2.6843,2.6796,2.6836,2.6837,2.6854,2.6853,2.6986,2.6863,2.6862,2.6862,2.6862,0,2.6755,2.6796,2.6768,2.6795,2.6838,2.6813,2.6857,2.6852,2.6853,2.6876,2.6843,2.6866,2.6839,2.6859,2.6843,2.6883,2.6887,2.6881,2.6876,2.6883,2.6884,2.6889,2.6882,2.6865,2.6865,2.6864,2.6863,0,2.6864,2.6847,2.6891,2.6884,2.6883,2.6916,2.691,2.6933,2.6922,2.6953,2.6959,2.6942,2.6964,2.6945,2.6966,2.6956,2.7008,2.6995,2.7007,2.7003,2.7044,2.704,2.7184,2.7201,2.7068,2.7069,2.707,0,2.6931,2.6961,2.6957,2.6971,2.6972,2.6995,2.7006,2.6981,2.6994,2.7,2.7022,2.7041,2.7055,2.7092,2.7081,2.7097,2.7084,2.7133,2.7086,2.7092,2.7083,2.7082,2.7084,2.7143,2.7144,2.7146,2.7147,0,2.705,2.704,2.7058,2.7072,2.7086,2.7097,2.7104,2.7117,2.7092,2.7108,2.713,2.7141,2.7162,2.7181,2.7193,2.7192,2.7165,2.7162,2.7172,2.7179,2.7184,2.7181,2.7032,2.7158,2.7157,2.7156,2.7156,2.7155,2.7139,2.7164,2.7165,2.7185,2.7188,2.7195,2.7217,2.7208,2.7226,2.7242,2.7226,2.7253,2.7254,2.7267,2.7269,2.7289,2.7269,2.7284,2.7287,2.7291,2.7297,2.7182,2.7292,2.7291,2.7291,2.7291,2.729,0,2.7256,2.7254,2.7273,2.7284,2.73,2.7274,2.728,2.7295,2.7319,2.7322,2.7337,2.7361,2.7379,2.737,2.7386,2.7403,2.7391,2.7408,2.7406,2.7406,2.7315,2.7304,2.7417,2.7417,2.7417,2.7417,2.7417,2.7417,2.7318,2.7358,2.7348,2.7389,2.7387,2.7412,2.7418,2.7425,2.7427,2.7456,2.7471,2.7465,2.7463,2.7478,2.7493,2.749,2.7497,2.7518,2.751,2.7425,2.7412,2.74,2.739,2.752,2.752,2.7599,2.76,2.7601]}]]